Location: Brompton
(51.4000°N, 0.5333°E)
Time: 16:44:17
(UTC+00:00)

RESURS DK-1 - Pass Details

Date: 11 May 2021
Orbit: 553 x 564 km, 69.9° (Epoch: 24 June)

Event Time Altitude Azimuth Distance (km) Brightness Sun altitude
Rises 22:55:36 0° 330° (NNW) 2,766 7.3 -19.3°
Reaches altitude 10° 22:57:53 10° 337° (NNW) 1,867 6.2 -19.4°
Maximum altitude 23:01:55 47° 52° (NE) 758 3.1 -19.5°
Enters shadow 23:03:32 30° 106° (ESE) 1,019 3.4 -19.6°
